Weather observations for the past three days for
Deadhorse, Deadhorse Airport
Metric (Imperial)
Date Time (akdt) Wind (kph) Vis. (km) Weather Sky Cond. Temperature (ºC) Relative Humidity Wind Chill (°C) Heat Index (°C) Pressure Precipitation (cm)
Air Dwpt 6 hour altimeter (cm) sea level (mb) 1 hr 3 hr 6 hr
Max. Min.
10 05:53 NE 41 3.22 Fog/Mist and Breezy OVC008 -13.9 -15.6 87% -25 75.97 1012.9
10 04:53 NE 39 8.05 Fog/Mist and Breezy OVC009 -13.3 -15 87% -24 75.97 1012.9
10 03:53 NE 37 16.09 Mostly Cloudy and Breezy BKN009 -12.8 -14.4 -7.2 -12.8 88% -23 75.95 1012.9
10 02:53 NE 43 9.66 Fog/Mist and Windy FEW008 -12.2 -13.9 87% -23 75.95 1012.8
10 01:53 NE 43 14.48 Fair and Windy CLR -11.1 -12.8 87% -22 75.97 1012.9
10 00:53 NE 44 G 57 16.09 Fair and Windy CLR -10 -11.7 88% -21 75.95 1012.6
09 23:53 NE 44 16.09 Partly Cloudy and Windy SCT036 -9.4 -11.1 88% -20 75.95 1012.6
09 22:53 NE 43 16.09 Overcast and Windy OVC019 -8.3 -10 88% -18 75.95 1012.8
09 21:53 NE 46 3.22 Blowing Snow Fog/Mist and Windy OVC008 -7.2 -8.9 -5 -7.2 88% -17 75.97 1012.9
09 20:53 NE 44 3.22 Blowing Snow Fog/Mist and Windy OVC007 -6.7 -7.8 92% -16 75.97 1013.1
09 19:53 NE 46 G 57 3.22 Blowing Snow Fog/Mist and Windy OVC007 -5.6 -6.7 92% -15 76 1013.2
09 18:53 NE 48 G 57 11.27 Overcast and Windy OVC008 -5.6 -7.2 89% -15 76 1013.3
09 17:53 NE 44 11.27 Overcast and Windy OVC008 -5.6 -7.2 89% -15 76 1013.4
09 16:53 NE 41 G 57 14.48 Overcast and Breezy OVC010 -5 -7.2 85% -14 76.05 1013.9
09 15:53 NE 46 16.09 Overcast and Windy OVC010 -5 -6.7 -5 -7.8 88% -14 76.05 1014.2
09 14:53 NE 44 16.09 Overcast and Windy OVC010 -5.6 -7.2 89% -15 76.1 1014.6
09 13:53 NE 46 16.09 Overcast and Windy OVC010 -5.6 -7.8 85% -15 76.1 1014.9
09 12:53 NE 44 G 56 4.83 Fog/Mist and Windy OVC008 -6.1 -7.8 88% -15 76.12 1015.1
09 11:53 NE 41 3.22 Fog/Mist and Breezy OVC007 -6.7 -7.8 92% -16 76.15 1015.5
09 10:53 NE 43 3.22 Fog/Mist and Windy OVC008 -7.2 -8.9 88% -17 76.17 1015.7
09 09:53 NE 39 4.83 Fog/Mist and Breezy SCT008 OVC023 -7.8 -8.9 -7.8 -8.9 92% -17 76.2 1016.2
09 08:53 NE 39 G 50 2.41 Fog/Mist and Breezy OVC007 -7.8 -8.9 92% -17 76.2 1016.2
09 07:53 NE 33 6.44 Fog/Mist and Breezy OVC007 -8.3 -9.4 92% -17 76.25 1016.7
09 06:53 NE 30 6.44 Fog/Mist OVC007 -8.3 -9.4 92% -17 76.28 1016.9
09 05:53 NE 24 3.22 Fog/Mist OVC005 -8.3 -9.4 92% -16 76.28 1017.2
09 04:53 NE 22 11.27 Overcast OVC008 -8.9 -10 92% -16 76.33 1017.8
09 03:53 NE 22 16.09 Overcast OVC010 -8.3 -10.6 -7.8 -9.4 84% -16 76.35 1018.0
09 02:53 NE 15 16.09 Overcast OVC010 -8.3 -10 88% -14 76.35 1018.3
09 01:53 NE 17 16.09 Overcast OVC013 -8.9 -10.6 88% -15 76.4 1018.8
09 00:53 NE 15 16.09 Overcast OVC015 -8.9 -11.7 80% -15 76.43 1019.0
08 23:53 NE 19 16.09 Overcast OVC022 -9.4 -10.6 91% -16 76.43 1019.1
08 22:53 E 13 6.44 Light Snow Fog/Mist FEW012 OVC023 -7.8 -9.4 88% -13 76.43 1019.2
08 21:53 NE 13 2.01 Light Snow Fog/Mist BKN006 OVC016 -7.8 -9.4 -7.2 -8.3 88% -13 76.43 1019.2
08 20:53 E 9 16.09 Overcast OVC017 -7.8 -10.6 81% -12 76.45 1019.4
08 19:53 E 15 8.05 Fog/Mist OVC012 -8.3 -11.1 80% -14 76.48 1019.7
08 18:53 E 19 16.09 Overcast BKN014 OVC019 -7.8 -10.6 81% -14 76.5 1020.0
08 17:53 E 20 14.48 Overcast OVC015 -7.8 -10 84% -15 76.5 1020.2
08 16:53 NE 22 8.05 Light Snow OVC013 -7.8 -10.6 81% -15 76.53 1020.5
08 15:53 E 19 4.83 Light Snow BKN010 OVC021 -7.8 -10.6 -7.2 -7.8 81% -14 76.56 1020.8
08 14:53 N 17 16.09 Overcast BKN010 OVC021 -7.8 -10 84% -14 76.56 1020.9
08 13:53 NE 17 9.66 Fog/Mist OVC010 -7.8 -9.4 88% -14 76.61 1021.4
08 12:53 E 13 11.27 Overcast OVC010 -7.8 -10 84% -13 76.61 1021.5
08 11:53 E 11 16.09 Overcast OVC011 -7.8 -10 84% -12 76.61 1021.7
08 10:53 NE 13 16.09 Overcast OVC010 -7.2 -9.4 84% -12 76.63 1021.8
08 09:53 NE 11 16.09 Overcast OVC011 -7.8 -9.4 -7.8 -7.8 88% -12 76.66 1022.1
08 08:53 NE 13 14.48 Overcast OVC010 -7.8 -9.4 88% -13 76.68 1022.4
08 07:53 NE 13 14.48 Light Snow Fog/Mist OVC010 -7.8 -8.9 92% -13 76.68 1022.6
08 06:53 NW 9 9.66 Light Snow Fog/Mist OVC007 -7.8 -8.9 92% -12 76.71 1022.9
08 05:53 NW 13 4.83 Light Snow Fog/Mist OVC004 -7.8 -8.3 96% -13 76.73 1023.2
08 04:53 W 11 4.02 Light Snow Fog/Mist OVC005 -7.8 -8.3 96% -12 76.76 1023.5
08 03:53 W 15 14.48 Light Snow OVC008 -7.8 -8.9 -7.2 -8.3 92% -13 76.76 1023.6
08 02:53 W 11 14.48 Light Snow OVC010 -7.8 -8.9 92% -12 76.78 1023.8
08 01:53 W 11 14.48 Light Snow OVC011 -7.8 -8.9 92% -12 76.78 1023.8
08 00:53 SW 11 14.48 Light Snow OVC011 -8.3 -9.4 92% -13 76.78 1024.0
07 23:53 SW 15 14.48 Light Snow OVC012 -8.3 -9.4 92% -14 76.81 1024.2
07 22:53 SW 11 16.09 Light Snow OVC011 -7.8 -9.4 88% -12 76.81 1024.2
07 21:53 SW 7 16.09 Overcast OVC011 -7.2 -9.4 -6.7 -7.2 84% -10 76.81 1024.2
07 20:53 W 11 16.09 Overcast OVC010 -7.2 -9.4 84% -12 76.84 1024.5
07 19:53 W 11 16.09 Overcast OVC010 -7.2 -8.9 88% -12 76.84 1024.5
07 18:53 W 9 16.09 Overcast OVC010 -7.2 -9.4 84% -11 76.84 1024.6
07 17:53 W 13 16.09 Overcast OVC010 -6.7 -8.9 85% -12 76.84 1024.6
07 16:53 W 7 16.09 Overcast OVC010 -7.2 -8.9 88% -10 76.84 1024.5
07 15:53 W 15 16.09 Overcast OVC010 -7.2 -9.4 -7.2 -7.8 84% -13 76.84 1024.4
07 14:53 W 15 16.09 Overcast OVC010 -7.2 -9.4 84% -13 76.81 1024.3
07 13:53 W 19 16.09 Overcast OVC008 -7.8 -9.4 88% -14 76.81 1024.1
07 12:53 W 15 16.09 Overcast OVC007 -7.8 -9.4 88% -13 76.78 1023.9
07 11:53 W 19 16.09 Overcast OVC007 -7.8 -8.9 92% -14 76.76 1023.5
07 10:53 W 11 16.09 Overcast OVC007 -7.8 -8.9 92% -12 76.73 1023.2
07 09:53 W 13 16.09 Overcast OVC008 -7.2 -8.9 -5.6 -7.2 88% -12 76.71 1022.9
07 08:53 W 15 16.09 Overcast OVC010 -6.7 -8.9 85% -12 76.68 1022.4
07 07:53 NW 17 16.09 Overcast OVC011 -6.7 -8.3 89% -13 76.66 1022.0
07 06:53 NW 17 16.09 Overcast OVC011 -6.1 -8.3 85% -12 76.61 1021.5
Date Time (akdt) Wind (kph) Vis. (km) Weather Sky Cond. Air Dwpt Max. Min. Relative Humidity Wind Chill (°C) Heat Index (°C) altimeter (cm) sea level (mb) 1 hr 3 hr 6 hr
6 hour
Temperature (ºC) Pressure Precipitation (cm)